,

(GMT )
Teruel

Tiempo Historia de LETL - Julio, 2018

Change the Weather History Date:

Jueves, Julio 12, 2018

  Actual Average Record
Temperature  
Temperatura media 72 ° F -  
Temperatura máxima 84 ° F - - ()
Temperatura mínima 59 ° F - - ()
Cooling Degree Days 6    
Growing Degree Days 22 (Base 50)    
Moisture  
Punto de rocío 53 ° F    
Average Humidity 61    
Maximum Humidity 94    
Minimum Humidity 20    
Precipitación  
Precipitación 0.00 pul - - ()
Presión al nivel del mar  
Presión al nivel del mar 30.06 pul    
Viento  
Velocidad del viento 6 mph ()    
Velocidad máxima del viento 16 mph    
Max Gust Speed 24 mph    
Visibilidad 5.8 Millas    
Eventos      
T = Trace of Precipitation, MM = Missing Value Source: Averaged Metar Reports

Daily Weather History Graph

Daily Weather History Graph

Search for Another Location

Airport or City:

Astronomía

Jul. 12, 2018 Salida Puesta
Hora real 6:45 AM CEST 9:35 PM CEST
Crepúsculo civil 6:12 AM CEST 10:07 PM CEST
Crepúsculo náutico 5:31 AM CEST 10:48 PM CEST
Crepúsculo astronómico 4:44 AM CEST 11:35 PM CEST
Luna 5:57 AM CEST (7/12) 9:03 PM CEST (7/12)
Horas de luz 15h 55m
Horas de luz
14h 50m
Creciente menguante, 1% of the Moon is Illuminated
Jul 12
Creciente menguante
Jul 13
Nueva
Jul 19
Cuarto creciente
Jul 27
Luna llena
Ago 4
Cuarto menguante

Hourly Weather History & Observations

Hora (CEST) Temp. Índice de calor Punto de rocío Humedad Presión Visibilidad Wind Dir Velocidad del viento Velocidad de ráfagas Precip Eventos Condiciones
1:00 AM 64.4 ° F - 59.0 ° F 83% 30.06 pul 6.2 mi ESE 5.8 mph - N/A   Muy nublado
2:30 AM 62.6 ° F - 59.0 ° F 88% 30.06 pul - ESE 4.6 mph - N/A   Despejado
3:30 AM 60.8 ° F - 59.0 ° F 94% 30.06 pul 6.2 mi ESE 4.6 mph - N/A   Parcialmente nublado
4:30 AM 59.0 ° F - 57.2 ° F 94% 30.06 pul 6.2 mi ESE 5.8 mph - N/A   Desconocido
5:00 AM 59.0 ° F - 57.2 ° F 94% 30.06 pul 5.6 mi SE 4.6 mph - N/A   Desconocido
5:30 AM 60.8 ° F - 57.2 ° F 88% 30.06 pul 6.2 mi Sin viento Sin viento - N/A   Desconocido
6:00 AM 59.0 ° F - 57.2 ° F 94% 30.06 pul 3.7 mi SE 2.3 mph - N/A   Desconocido
6:30 AM 59.0 ° F - 57.2 ° F 94% 30.06 pul 5.6 mi SE 3.5 mph - N/A   Desconocido
7:30 AM 59.0 ° F - 57.2 ° F 94% 30.06 pul 3.7 mi Sur 4.6 mph - N/A   Desconocido
8:30 AM 62.6 ° F - 59.0 ° F 88% 30.06 pul 6.2 mi SE 5.8 mph - N/A   Desconocido
9:30 AM 68.0 ° F - 57.2 ° F 68% 30.09 pul 6.2 mi Sur 6.9 mph - N/A   Desconocido
12:30 PM 77.0 ° F - 51.8 ° F 41% 30.09 pul 6.2 mi SE 11.5 mph - N/A   Desconocido
1:30 PM 80.6 ° F - 50.0 ° F 34% 30.06 pul - SSE 12.7 mph - N/A   Despejado
3:00 PM 82.4 ° F - 42.8 ° F 25% 30.06 pul - Sur 10.4 mph - N/A   Despejado
4:00 PM 82.4 ° F - 42.8 ° F 25% 30.04 pul - SSO 10.4 mph 21.9 mph N/A   Despejado
4:30 PM 82.4 ° F - 42.8 ° F 25% 30.04 pul - Sur 10.4 mph 24.2 mph N/A   Despejado
5:30 PM 84.2 ° F - 41.0 ° F 22% 30.04 pul - SSO 8.1 mph - N/A   Despejado
6:00 PM 84.2 ° F - 39.2 ° F 20% 30.04 pul - SSO 15.0 mph - N/A   Despejado
6:30 PM 84.2 ° F - 41.0 ° F 22% 30.04 pul 6.2 mi SO 10.4 mph - N/A   Desconocido
7:00 PM 84.2 ° F - 39.2 ° F 20% 30.04 pul 5.6 mi Sur 10.4 mph - N/A   Desconocido
8:00 PM 80.6 ° F 80.8 ° F 57.2 ° F 45% 30.04 pul 6.2 mi Sur 8.1 mph - N/A   Desconocido
8:30 PM 77.0 ° F - 59.0 ° F 54% 30.04 pul 6.2 mi SE 16.1 mph - N/A   Desconocido
9:00 PM 75.2 ° F - 59.0 ° F 57% 30.06 pul 6.2 mi SE 16.1 mph - N/A   Desconocido
10:30 PM 69.8 ° F - 60.8 ° F 73% 30.09 pul 6.2 mi SE 10.4 mph - N/A   Desconocido
11:00 PM 68.0 ° F - 60.8 ° F 78% 30.12 pul 6.2 mi SE 9.2 mph - N/A   Desconocido
11:30 PM 68.0 ° F - 60.8 ° F 78% 30.12 pul 6.2 mi SE 9.2 mph - N/A   Desconocido